星链-4178 (STARLINK-4178 )

导读

STARLINK-4178是美国太空探索技术公司(SpaceX)星链(Starlink)互联网星座组网卫星,于2022年7月24日在美国发射入轨。星链星座旨在为全球提供高速低延迟卫星互联网服务,该卫星属于星链项目批量生产发射的卫星,承担全球网络覆盖补网组网任务,推进星座部署进程。

基本信息
目录编号:
53277
目录名称:
STARLINK-4178
国际标识:
2022-086AM
轨道中心:
EARTH
卫星名称:
星链-4178
卫星全名:
星链-4178 (STARLINK-4178 )
卫星状态:
在轨 (已飞行1424 天)
发射日期:
2022-07-24 UTC
国别 :
美国 (US)
星等 :
--
轨道信息
数据来源 国际轨道数据 AOE轨道数据
星历时间 2026-06-17T09:02:40+0800
10小时前
查看轨道信息
2026-06-14T02:00:00+0800
3天前
查看轨道信息
半长轴 6914.453km 6917.9km
偏心率 0.000174 0.0001543
轨道倾角 53.161° 53.159°
近地点辐角 123.230° 88.281°
升交点赤经 98.024° 112.844°
平近点角 236.886° 4.813°
近地点 535.112km 538.695km
远地点 537.52km 540.831km
周期 95.367分钟 95.438分钟
每日圈数 15.099621 15.088337
详细信息
固有亮度:
5
最大亮度:
2.5
卫星平台:
Starlink v1.5
覆盖范围:
全球
运营商:
太空探索技术公司
运营商所在国:
美国
制造商(研发单位):
太空探索技术公司
制造商所在国:
美国
使用方式:
暂无
卫星简介
星链(Starlink)计划是由太空探索技术公司(SpaceX)提出的一个巨型低轨卫星互联网星座项目,计划在2019年至2024年间在太空搭建由约1.2万颗卫星组成的“星链”网络,其中1584颗将部署在地球上空550千米处的近地轨道,并从2020年开始工作。该卫星仍在工作。
2D轨道图
3D轨道图
轨道高度分析图
轨道倾角分析图
轨道综合分析图
查看轨道综合分析图